Wind_Speed
6 6 6 7 7 6 6 7 8 10 12 13 15 16 17 13 17 17 17 21 17 26 20 20 13 21 19 19 19 22 19 21 21 25 24 20 21 23 23 21 18 23 24
5 5 5 4 5 6 8 9 11 13 15 17 18 21 23 23 24 26 32 28 29 17 30 23 16 17 24 25 24 25 24 23 25 27 28 25 23 23 25 26 24 19 13
5 3 3 5 4 8 10 11 13 15 17 20 23 26 28 29 28 28 29 34 28 27 26 30 30 16 24 28 28 30 29 27 28 29 28 26 25 26 24 26 29 24 15
0 0 7 9 6 9 11 12 16 17 21 22 26 30 33 34 32 29 31 31 33 34 23 27 22 23 29 35 36 33 33 26 31 30 29 28 26 25 24 25 29 31 28
4 4 5 6 10 12 14 17 17 17 22 24 26 29 32 35 36 34 33 34 34 33 32 25 28 23 32 29 29 35 26 25 30 33 29 28 29 29 26 26 24 31 31
6 8 10 12 13 15 15 17 19 20 18 25 28 32 38 28 28 25 23 27 27 24 25 25 18 24 30 28 26 23 23 26 27 31 28 28 30 33 31 27 28 30 35
6 8 10 13 15 15 15 17 20 23 25 26 29 36 28 25 29 27 26 25 28 26 25 22 22 25 26 28 30 21 29 24 30 28 21 19 29 32 32 28 27 27 32
6 9 11 13 14 15 17 19 23 25 27 27 31 34 35 34 30 31 30 37 26 26 27 32 27 26 26 26 15 21 23 16 25 23 28 17 26 30 32 30 32 26 34
7 11 13 14 16 17 18 21 22 25 27 25 29 33 31 36 35 39 40 40 30 33 32 30 20 21 15 20 24 22 20 24 34 36 23 31 31 30 34 31 28 29 35
9 12 14 15 17 19 21 23 23 23 23 28 27 32 33 35 37 37 39 38 29 42 31 21 17 19 16 21 24 12 20 29 34 36 38 39 32 29 31 30 29 33 35
12 15 15 16 17 18 19 21 23 24 25 25 29 28 27 31 34 34 39 42 39 38 29 22 15 14 27 30 16 16 23 33 39 37 38 32 31 31 34 27 28 32 35
15 17 16 16 16 17 18 20 22 23 24 27 28 32 31 34 33 34 34 38 45 40 29 25 9 30 40 27 25 25 28 33 36 34 36 35 26 28 32 28 31 32 33
18 17 16 14 16 18 19 20 20 21 27 28 28 30 32 34 31 31 33 36 42 37 31 29 21 41 35 30 28 29 28 29 26 25 21 18 22 30 28 35 33 32 33
15 14 14 16 17 17 16 18 21 22 25 28 28 28 29 33 30 30 33 35 35 36 32 32 41 42 38 33 33 31 28 15 18 16 10 21 17 22 31 35 33 29 33
12 14 15 14 15 14 17 19 21 22 24 25 26 28 30 31 29 31 31 33 34 37 35 34 41 42 38 34 31 27 10 14 9 18 18 16 21 24 31 30 32 27 31
14 13 13 13 14 14 16 18 19 21 22 25 26 27 29 30 29 30 30 30 33 36 35 39 41 40 36 32 26 17 9 8 11 11 17 18 21 25 29 31 31 30 36
18 15 13 12 12 12 14 16 19 20 22 23 26 28 29 29 27 26 30 32 35 33 32 32 37 35 31 28 22 10 8 6 7 6 12 23 23 24 31 31 28 35 37
19 16 13 11 10 10 12 15 17 19 21 24 26 28 29 31 30 28 32 33 33 31 26 34 33 32 29 25 20 14 16 9 4 7 9 20 24 26 31 29 31 33 39
16 14 14 11 10 9 11 13 16 19 23 27 30 31 32 34 35 33 33 32 33 34 32 35 36 31 28 25 21 13 11 9 8 8 11 17 23 27 27 28 32 37 43
17 15 15 12 11 9 11 12 17 20 24 28 31 35 38 37 36 36 34 33 32 30 32 36 30 30 25 26 24 16 13 11 10 12 14 18 22 23 26 29 35 41 43
16 15 17 14 13 10 12 14 17 21 25 29 33 36 40 41 38 37 35 32 30 32 30 30 30 28 25 27 24 17 12 12 10 12 13 17 17 21 24 28 40 39 39
19 18 16 16 16 14 15 17 20 23 26 30 33 36 39 41 41 39 35 31 28 28 23 23 25 24 25 27 27 18 13 11 7 8 11 15 16 19 23 32 41 40 30
21 21 20 19 18 17 19 20 22 24 26 30 33 35 38 39 40 39 36 31 28 25 29 27 19 22 22 24 28 23 18 13 8 9 12 14 14 19 26 35 36 35 29
23 23 22 22 22 21 22 23 23 24 27 31 33 35 38 39 40 37 35 32 26 19 23 30 34 21 20 21 25 24 22 18 11 8 9 11 14 21 26 36 31 29 30
27 26 25 25 24 25 25 25 25 27 29 32 34 35 37 38 38 34 33 28 22 18 18 21 25 18 18 17 18 21 21 15 11 7 9 13 18 20 29 35 32 32 32
29 29 28 27 26 27 27 26 28 29 31 32 34 36 36 37 36 33 29 23 22 18 14 16 18 20 17 16 13 14 16 16 13 7 8 13 18 25 35 39 32 28 25
Wind_Direction
106 90 66 50 42 14 351 350 356 340 336 332 328 327 330 328 311 298 294 294 273 302 302 280 278 276 282 282 275 275 262 262 268 271 270 261 249 250 263 263 250 218 211
98 78 64 41 15 334 321 334 335 329 326 323 326 324 323 324 325 326 324 324 318 261 270 302 279 278 275 281 277 276 283 272 265 258 262 259 256 259 257 261 250 239 234
95 82 39 357 323 311 316 321 319 322 319 322 323 323 323 323 321 321 319 317 316 316 326 250 311 312 244 276 262 266 263 267 266 259 261 263 256 252 254 254 257 245 243
339 204 117 234 294 294 307 317 322 328 321 325 325 325 323 323 321 318 313 309 309 309 312 304 318 297 268 279 270 265 254 276 268 255 256 258 256 251 253 252 251 253 236
254 282 305 303 304 319 324 325 322 328 326 327 328 326 319 305 304 305 306 306 303 299 303 299 302 274 275 272 273 267 264 288 267 264 249 254 249 254 249 250 249 245 229
308 315 315 316 326 329 331 325 322 326 330 324 326 324 323 358 354 339 330 325 311 302 296 299 275 262 270 278 273 250 260 296 280 270 260 256 248 248 253 242 241 240 233
309 309 322 328 331 334 334 328 325 324 331 332 330 322 351 352 354 344 339 334 323 299 282 277 281 295 281 277 272 261 286 289 296 264 260 270 255 244 249 246 233 237 230
308 315 325 328 328 332 330 327 326 330 334 337 330 334 355 350 348 359 351 344 323 317 306 286 276 291 291 267 270 286 284 260 284 276 275 265 244 252 245 240 233 232 224
308 315 326 326 325 329 329 330 332 328 332 340 344 344 345 345 349 345 353 342 337 320 305 312 282 297 289 277 270 309 300 275 281 268 254 267 257 246 247 231 237 234 215
317 315 318 319 323 329 332 335 333 336 340 341 344 347 347 351 352 352 346 339 335 336 324 314 288 273 329 302 292 286 267 263 274 266 269 252 246 242 237 240 242 211 207
309 312 313 318 321 332 337 337 338 339 336 338 343 350 348 347 348 346 350 349 349 353 335 327 302 297 339 358 335 298 280 265 261 262 264 242 267 256 245 232 206 200 206
298 301 309 319 329 334 333 332 331 333 337 336 339 341 342 343 344 345 350 347 346 351 346 332 294 334 348 344 335 310 288 274 272 268 264 260 257 251 214 208 197 191 191
296 305 313 322 328 333 334 341 340 341 343 343 344 344 345 347 346 346 344 344 336 349 346 357 332 346 346 343 336 319 303 287 269 260 260 247 240 215 199 189 185 187 192
301 310 315 321 325 332 333 330 339 341 344 349 347 351 350 351 354 351 344 343 344 344 348 348 342 348 350 347 337 329 319 290 263 233 199 204 197 194 196 184 181 186 192
297 305 309 318 329 332 331 329 339 346 346 349 349 349 353 353 355 351 343 345 342 344 348 352 339 350 351 346 345 344 350 343 291 201 202 184 181 180 178 176 188 187 189
294 297 305 320 327 334 337 344 349 350 350 348 351 354 356 357 354 356 352 348 342 344 351 343 347 350 354 350 355 4 355 354 19 184 194 180 183 181 183 185 189 187 182
291 284 297 312 316 332 347 353 353 349 352 354 358 0 1 359 357 354 356 351 345 346 350 354 345 355 359 356 2 358 357 357 14 162 185 183 187 185 182 185 190 178 175
284 284 293 296 305 331 346 357 353 358 3 2 1 1 2 3 2 1 3 358 351 346 344 347 354 1 3 9 11 19 37 59 82 132 153 168 174 179 179 182 175 178 174
274 277 283 283 289 328 339 346 348 2 4 4 3 3 1 3 3 3 4 360 354 349 351 353 357 8 6 19 22 15 28 55 93 118 150 152 162 169 176 172 169 169 168
270 269 273 268 286 314 321 334 343 348 350 354 356 358 0 0 360 359 359 1 356 349 349 348 2 13 12 26 28 25 39 58 82 116 136 149 155 170 170 167 168 166 166
266 265 269 268 285 301 311 322 329 333 340 345 348 351 352 357 354 356 357 360 359 356 354 6 4 10 21 30 30 36 51 67 88 108 137 151 156 162 162 164 164 160 164
265 269 273 254 287 297 303 311 319 328 334 335 338 343 346 348 351 351 354 356 359 1 359 359 4 15 24 32 37 44 60 85 99 116 142 158 161 158 155 158 161 167 172
263 271 275 280 290 295 299 307 314 322 328 330 333 336 339 344 347 347 347 351 357 360 344 340 16 19 22 38 36 44 59 62 94 122 145 159 161 162 165 164 165 172 171
264 266 272 279 286 291 295 299 305 314 320 324 331 331 335 341 343 341 342 346 352 359 358 348 358 20 24 32 38 40 47 53 66 105 145 160 168 171 166 160 155 168 177
266 267 270 274 278 282 287 294 302 308 312 317 323 326 332 336 337 335 339 345 351 355 359 354 11 23 22 26 45 40 50 57 55 88 136 156 167 173 166 156 159 160 169
268 269 270 274 277 280 283 289 294 299 304 310 318 322 326 330 332 330 337 343 349 355 1 352 360 5 14 17 27 49 49 60 84 104 144 162 166 165 171 174 177 175 183
Height
5928 5927 5926 5926 5925 5924 5922 5921 5921 5919 5917 5915 5913 5909 5905 5905 5905 5902 5895 5880 5876 5883 5874 5879 5875 5879 5878 5876 5875 5873 5871 5871 5872 5871 5873 5877 5879 5881 5880 5879 5881 5884 5886
5929 5928 5927 5926 5926 5924 5921 5920 5919 5917 5915 5913 5910 5907 5903 5901 5901 5897 5888 5882 5881 5860 5873 5866 5869 5873 5871 5870 5870 5869 5868 5866 5863 5863 5863 5867 5871 5875 5876 5877 5877 5880 5884
5929 5928 5928 5926 5926 5923 5921 5921 5919 5917 5913 5911 5907 5904 5901 5898 5897 5895 5890 5881 5878 5875 5871 5868 5869 5866 5864 5866 5863 5861 5860 5857 5858 5858 5860 5862 5863 5864 5869 5872 5874 5876 5878
5931 5929 5932 5930 5926 5923 5921 5920 5918 5916 5912 5911 5907 5902 5897 5894 5891 5890 5885 5880 5872 5866 5870 5867 5861 5862 5863 5858 5855 5853 5851 5853 5852 5852 5854 5856 5858 5858 5861 5865 5868 5871 5874
5931 5929 5928 5927 5925 5923 5920 5918 5917 5916 5912 5909 5905 5902 5897 5890 5885 5882 5877 5874 5870 5866 5862 5860 5856 5853 5852 5851 5849 5845 5845 5845 5842 5844 5848 5850 5851 5853 5854 5859 5863 5866 5870
5932 5930 5928 5926 5925 5923 5921 5918 5915 5912 5912 5907 5903 5900 5892 5886 5881 5876 5873 5869 5864 5860 5857 5855 5852 5848 5846 5844 5843 5839 5834 5837 5835 5837 5839 5842 5844 5846 5847 5852 5856 5859 5861
5931 5930 5928 5926 5924 5922 5920 5917 5913 5910 5908 5906 5903 5896 5890 5885 5880 5874 5870 5866 5859 5855 5852 5849 5846 5843 5840 5837 5835 5835 5834 5829 5831 5830 5832 5833 5836 5837 5839 5845 5849 5851 5855
5931 5929 5928 5926 5925 5922 5918 5915 5912 5909 5907 5906 5900 5893 5888 5884 5878 5871 5867 5862 5855 5851 5846 5841 5839 5837 5834 5832 5831 5830 5825 5824 5824 5823 5823 5825 5829 5831 5832 5836 5840 5845 5850
5930 5929 5927 5925 5923 5920 5917 5915 5912 5909 5905 5903 5898 5891 5887 5881 5874 5868 5864 5856 5848 5845 5838 5835 5834 5831 5829 5829 5826 5820 5819 5817 5815 5815 5810 5815 5818 5821 5823 5827 5832 5837 5844
5931 5929 5926 5924 5921 5918 5915 5913 5910 5907 5905 5900 5897 5889 5882 5877 5871 5868 5861 5853 5845 5839 5834 5830 5828 5826 5824 5822 5820 5817 5813 5810 5807 5802 5803 5807 5807 5808 5814 5817 5821 5829 5838
5930 5927 5925 5922 5920 5918 5916 5913 5910 5907 5903 5899 5894 5890 5885 5879 5872 5865 5859 5852 5845 5837 5832 5826 5824 5823 5822 5812 5810 5807 5804 5800 5797 5795 5792 5793 5797 5798 5803 5811 5815 5823 5832
5929 5926 5924 5922 5920 5918 5915 5912 5908 5905 5901 5896 5891 5886 5882 5876 5870 5864 5856 5850 5842 5835 5829 5825 5820 5816 5812 5807 5804 5798 5792 5787 5783 5782 5779 5781 5784 5788 5794 5803 5811 5818 5828
5926 5924 5922 5920 5918 5916 5914 5911 5908 5905 5900 5895 5891 5885 5879 5874 5867 5861 5856 5849 5841 5834 5829 5823 5819 5813 5808 5801 5793 5785 5778 5773 5769 5770 5772 5774 5777 5780 5789 5799 5809 5816 5825
5925 5923 5921 5918 5917 5914 5913 5910 5907 5904 5899 5894 5889 5884 5880 5873 5866 5861 5855 5849 5842 5835 5828 5822 5815 5808 5800 5793 5785 5776 5766 5760 5760 5763 5767 5771 5773 5779 5786 5796 5805 5814 5822
5922 5921 5919 5917 5915 5913 5911 5909 5906 5902 5897 5893 5889 5884 5878 5872 5866 5861 5855 5848 5842 5834 5827 5818 5813 5804 5796 5788 5779 5770 5764 5760 5758 5760 5766 5769 5772 5777 5785 5794 5804 5811 5819
5920 5919 5918 5916 5914 5911 5909 5907 5904 5901 5896 5892 5888 5883 5877 5871 5865 5860 5855 5847 5839 5832 5824 5818 5809 5802 5794 5786 5777 5770 5765 5764 5761 5762 5766 5771 5775 5780 5787 5795 5803 5810 5818
5918 5916 5915 5914 5912 5909 5908 5905 5903 5900 5895 5891 5886 5882 5876 5871 5865 5860 5854 5845 5837 5830 5824 5818 5810 5801 5793 5785 5777 5770 5767 5766 5764 5763 5764 5769 5776 5782 5788 5796 5804 5811 5820
5915 5914 5912 5911 5910 5908 5906 5904 5902 5899 5894 5890 5885 5881 5875 5870 5864 5858 5852 5844 5836 5828 5822 5816 5808 5801 5793 5786 5779 5773 5770 5766 5766 5766 5767 5771 5777 5784 5791 5798 5803 5811 5820
5911 5910 5910 5909 5907 5905 5904 5903 5900 5897 5893 5889 5884 5879 5874 5867 5862 5856 5851 5845 5837 5828 5820 5816 5809 5801 5795 5787 5781 5777 5774 5772 5770 5770 5771 5774 5779 5786 5793 5800 5806 5814 5823
5908 5907 5907 5906 5905 5903 5902 5900 5897 5895 5892 5887 5883 5878 5872 5866 5861 5855 5850 5845 5838 5831 5825 5817 5809 5802 5797 5790 5785 5782 5779 5777 5776 5776 5777 5780 5784 5790 5795 5801 5808 5819 5828
5904 5904 5903 5903 5903 5901 5900 5898 5896 5894 5890 5886 5882 5876 5871 5866 5861 5856 5850 5844 5839 5832 5826 5820 5813 5805 5799 5793 5789 5787 5785 5783 5783 5782 5784 5786 5790 5795 5801 5806 5814 5824 5833
5901 5901 5900 5901 5899 5898 5897 5895 5894 5891 5888 5885 5880 5875 5870 5865 5861 5855 5849 5844 5839 5834 5828 5822 5815 5809 5803 5798 5795 5793 5790 5788 5789 5789 5790 5792 5796 5800 5807 5814 5821 5830 5837
5898 5898 5897 5896 5895 5894 5894 5892 5890 5888 5886 5883 5878 5874 5869 5864 5859 5854 5848 5844 5839 5834 5828 5823 5817 5813 5809 5804 5800 5798 5796 5795 5795 5795 5796 5799 5802 5807 5813 5819 5827 5834 5840
5894 5894 5893 5892 5891 5891 5890 5889 5887 5886 5883 5879 5875 5871 5867 5862 5857 5853 5847 5843 5839 5835 5829 5825 5820 5816 5813 5809 5806 5803 5801 5802 5803 5803 5804 5805 5809 5813 5819 5826 5830 5835 5842
5888 5888 5887 5887 5887 5886 5886 5885 5883 5882 5880 5876 5872 5868 5864 5860 5855 5851 5846 5842 5837 5834 5832 5827 5823 5820 5816 5815 5812 5810 5808 5809 5809 5810 5810 5812 5814 5818 5824 5829 5834 5840 5846
5882 5882 5882 5882 5882 5881 5881 5880 5878 5877 5876 5873 5869 5866 5862 5857 5853 5849 5844 5840 5836 5834 5831 5829 5825 5823 5821 5818 5817 5815 5813 5814 5815 5815 5817 5818 5820 5823 5827 5832 5836 5842 5848